Location: Hamburg
(53.5511°N, 9.9937°E)
Time: 17:06:24
(UTC+02:00)

ISS - Pass Details

Date: 22 March 2026
Orbit: 416 x 425 km, 51.6° (Epoch: 19 April)

Event Time Altitude Azimuth Distance (km) Brightness Sun altitude
Rises 19:05:41 0° 268° (W) 2,389 2.3 -5.1°
Reaches altitude 10° 19:07:48 10° 265° (W) 1,522 0.7 -5.4°
Maximum altitude 19:11:11 62° 185° (S) 482 -3.5 -5.9°
Drops below altitude 10° 19:14:33 10° 103° (ESE) 1,515 -1.6 -6.4°
Enters shadow 19:14:51 - 103° (ESE) 1,634 -1.5 -6.4°
